User: anonymous   Login
Location: Dehesa de la Cepeda
(40.6574°N, 4.3013°W)
Time: 01:53:34
(UTC+00:00)
Language:

ISS - Orbit

View from above orbital plane
View from above orbital plane
View from above satellite
View from above satellite

Ground track
Ground track

The orbit data is extracted from the following two-line orbital elements,

1 25544U 98067A   21207.84939391  .00000538  00000-0  17962-4 0  9993
2 25544  51.6435 146.5918 0001284 202.3894 258.2932 15.48864072294745
Epoch (UTC): 26 July 2021 20:23:07
Eccentricity: 0.0001284
inclination: 51.6435°
perigee height: 419 km
apogee height: 421 km
right ascension of ascending node: 146.5918°
argument of perigee: 202.3894°
revolutions per day: 15.48864072
mean anomaly at epoch: 258.2932°
orbit number at epoch: 29474

The dashed part of the orbit path shows where the satellite is in the earth's shadow,  

DLR